Retour au catalogue

CZ-6A DEB

ActifSSO
NORAD 54519·DEBRIS·🇨🇳 China

Lancé Nov 11, 2022 depuis Taiyuan Satellite Launch Center

Loading…

Prochains Passages (prochaines 24 heures)

TLE

FraisSource: Space-Track

Époque: Sep 14, 2026, 01:10 UTC

1 54519U 22151JX  26257.04890763  .00001992  00000-0  51417-3 0  9996
2 54519  98.5164 284.3766 0120271  69.2881 292.1154 14.46859506201760

Suivez CZ-6A DEB en temps réel avec AllMySat

Download on the App Store